LSP183 SCFA-SCCF

Flight info

Callsign LSP183
Flight time 0h 27m
Altitude 25000
Route TATIO4K TATIO TATIO4A
Aircraft B736/M-SDE2E3FGHIRWXY/LB1

Departure

Time 2026-04-26 21:21
Airport Andrés Sabella Gálvez International Airport (SCFA)

Arrival

Time 2026-04-26 21:49
Airport El Loa Airport (SCCF)
Time Latitude Longitude Altitude Speed Heading
2026-04-26 20:49 -23.44873 -70.44166 365 ft 0 kts 96°
2026-04-26 21:06 -23.44871 -70.44186 365 ft 4 kts 98°
2026-04-26 21:06 -23.44869 -70.44215 365 ft 4 kts 88°
2026-04-26 21:06 -23.44872 -70.44244 365 ft 4 kts 75°
2026-04-26 21:06 -23.44876 -70.44259 365 ft 1 kts 74°
2026-04-26 21:07 -23.44876 -70.44260 365 ft 0 kts 74°
2026-04-26 21:13 -23.44854 -70.44244 371 ft 6 kts
2026-04-26 21:14 -23.44813 -70.44261 366 ft 6 kts 337°
2026-04-26 21:14 -23.44771 -70.44276 366 ft 7 kts 345°
2026-04-26 21:14 -23.44722 -70.44290 367 ft 8 kts 345°
2026-04-26 21:14 -23.44662 -70.44308 369 ft 10 kts 344°
2026-04-26 21:15 -23.44592 -70.44327 371 ft 11 kts 353°
2026-04-26 21:15 -23.44513 -70.44322 373 ft 12 kts
2026-04-26 21:15 -23.44428 -70.44311 376 ft 12 kts
2026-04-26 21:15 -23.44344 -70.44300 380 ft 12 kts
2026-04-26 21:16 -23.44262 -70.44290 383 ft 12 kts
2026-04-26 21:16 -23.44181 -70.44280 387 ft 11 kts
2026-04-26 21:16 -23.44105 -70.44272 392 ft 11 kts
2026-04-26 21:16 -23.44029 -70.44263 390 ft 11 kts
2026-04-26 21:17 -23.43955 -70.44254 400 ft 10 kts
2026-04-26 21:17 -23.43884 -70.44244 404 ft 10 kts
2026-04-26 21:17 -23.43814 -70.44236 409 ft 10 kts
2026-04-26 21:17 -23.43747 -70.44228 411 ft 10 kts
2026-04-26 21:18 -23.43681 -70.44219 408 ft 9 kts
2026-04-26 21:18 -23.43617 -70.44211 418 ft 9 kts
2026-04-26 21:18 -23.43554 -70.44204 417 ft 9 kts
2026-04-26 21:18 -23.43494 -70.44196 429 ft 9 kts
2026-04-26 21:19 -23.43435 -70.44190 426 ft 8 kts
2026-04-26 21:19 -23.43378 -70.44191 429 ft 8 kts 343°
2026-04-26 21:19 -23.43330 -70.44223 436 ft 8 kts 319°
2026-04-26 21:19 -23.43284 -70.44269 436 ft 10 kts 313°
2026-04-26 21:20 -23.43292 -70.44343 437 ft 9 kts 231°
2026-04-26 21:20 -23.43348 -70.44371 438 ft 7 kts 186°
2026-04-26 21:20 -23.43350 -70.44371 438 ft 0 kts 186°
2026-04-26 21:21 -23.43359 -70.44372 428 ft 15 kts 186°
2026-04-26 21:21 -23.43799 -70.44426 409 ft 109 kts 186°
2026-04-26 21:21 -23.44803 -70.44548 396 ft 175 kts 186°
2026-04-26 21:21 -23.46044 -70.44665 1165 ft 176 kts 185°
2026-04-26 21:22 -23.47204 -70.44778 2400 ft 162 kts 187°
2026-04-26 21:22 -23.48343 -70.44909 3192 ft 175 kts 187°
2026-04-26 21:22 -23.49686 -70.45062 3513 ft 212 kts 187°
2026-04-26 21:23 -23.53032 -70.45438 4180 ft 268 kts 187°
2026-04-26 21:23 -23.54919 -70.45646 5052 ft 274 kts 187°
2026-04-26 21:23 -23.56774 -70.46110 5970 ft 276 kts 210°
2026-04-26 21:23 -23.58097 -70.47549 6872 ft 276 kts 243°
2026-04-26 21:24 -23.58584 -70.49564 7773 ft 279 kts 268°
2026-04-26 21:24 -23.58264 -70.51673 8649 ft 287 kts 291°
2026-04-26 21:24 -23.57163 -70.53501 9582 ft 294 kts 316°
2026-04-26 21:24 -23.55434 -70.54718 10444 ft 305 kts 337°
2026-04-26 21:25 -23.53293 -70.55400 10753 ft 335 kts 346°
2026-04-26 21:25 -23.50934 -70.55960 11195 ft 354 kts 347°
2026-04-26 21:25 -23.48501 -70.56565 11983 ft 361 kts 346°
2026-04-26 21:25 -23.46011 -70.56970 12948 ft 365 kts
2026-04-26 21:26 -23.43543 -70.56451 13889 ft 370 kts 19°
2026-04-26 21:26 -23.41144 -70.55365 14671 ft 377 kts 22°
2026-04-26 21:26 -23.38707 -70.54183 15372 ft 387 kts 23°
2026-04-26 21:26 -23.36236 -70.52971 16122 ft 393 kts 23°
2026-04-26 21:27 -23.33712 -70.51743 16879 ft 400 kts 23°
2026-04-26 21:27 -23.31135 -70.50506 17610 ft 408 kts 22°
2026-04-26 21:27 -23.28510 -70.49257 18311 ft 416 kts 22°
2026-04-26 21:27 -23.25828 -70.47989 18960 ft 422 kts 22°
2026-04-26 21:28 -23.23166 -70.46734 19700 ft 423 kts 21°
2026-04-26 21:28 -23.20460 -70.45458 20473 ft 425 kts 21°
2026-04-26 21:28 -23.17738 -70.44176 21207 ft 428 kts 20°
2026-04-26 21:28 -23.14994 -70.42885 21902 ft 431 kts 20°
2026-04-26 21:29 -23.12238 -70.41561 22576 ft 436 kts 24°
2026-04-26 21:29 -23.09772 -70.39572 23240 ft 447 kts 44°
2026-04-26 21:29 -23.07918 -70.36834 23855 ft 455 kts 60°
2026-04-26 21:29 -23.06602 -70.33699 24411 ft 458 kts 65°
2026-04-26 21:30 -23.05368 -70.30496 24894 ft 462 kts 66°
2026-04-26 21:30 -23.04139 -70.27251 25009 ft 469 kts 66°
2026-04-26 21:30 -23.02875 -70.23931 25011 ft 481 kts 66°
2026-04-26 21:30 -23.02013 -70.21693 25016 ft 487 kts 65°
2026-04-26 21:31 -23.00225 -70.17113 25012 ft 497 kts 65°
2026-04-26 21:31 -22.98854 -70.13638 25017 ft 503 kts 65°
2026-04-26 21:31 -22.97464 -70.10135 25008 ft 505 kts 65°
2026-04-26 21:31 -22.96076 -70.06644 24995 ft 503 kts 65°
2026-04-26 21:32 -22.94691 -70.03164 24987 ft 502 kts 65°
2026-04-26 21:32 -22.93307 -69.99686 24994 ft 502 kts 65°
2026-04-26 21:32 -22.91938 -69.96248 24992 ft 502 kts 65°
2026-04-26 21:32 -22.90553 -69.92771 24975 ft 502 kts 65°
2026-04-26 21:33 -22.89165 -69.89289 24977 ft 503 kts 65°
2026-04-26 21:33 -22.87776 -69.85807 24973 ft 503 kts 65°
2026-04-26 21:33 -22.86389 -69.82330 24973 ft 503 kts 65°
2026-04-26 21:33 -22.84997 -69.78845 24963 ft 503 kts 65°
2026-04-26 21:34 -22.83606 -69.75363 24963 ft 503 kts 65°
2026-04-26 21:34 -22.82214 -69.71883 24960 ft 503 kts 65°
2026-04-26 21:34 -22.80822 -69.68402 24958 ft 503 kts 65°
2026-04-26 21:34 -22.79680 -69.64858 24943 ft 505 kts 74°
2026-04-26 21:35 -22.78869 -69.61155 24953 ft 505 kts 77°
2026-04-26 21:35 -22.78163 -69.57420 24946 ft 505 kts 78°
2026-04-26 21:35 -22.77477 -69.53689 24947 ft 505 kts 78°
2026-04-26 21:35 -22.76769 -69.49964 24949 ft 505 kts 77°
2026-04-26 21:36 -22.76029 -69.46248 24947 ft 504 kts 77°
2026-04-26 21:36 -22.75515 -69.43741 24931 ft 504 kts 76°
2026-04-26 21:36 -22.74486 -69.38840 24948 ft 504 kts 76°
2026-04-26 21:36 -22.73701 -69.35137 24948 ft 504 kts 76°
2026-04-26 21:37 -22.72915 -69.31436 24946 ft 503 kts 76°
2026-04-26 21:37 -22.72130 -69.27737 24951 ft 503 kts 76°
2026-04-26 21:37 -22.71346 -69.24031 24120 ft 505 kts 76°
2026-04-26 21:37 -22.70572 -69.20375 23012 ft 501 kts 76°
2026-04-26 21:38 -22.69789 -69.16674 21821 ft 494 kts 77°
2026-04-26 21:38 -22.69035 -69.13118 20841 ft 485 kts 77°
2026-04-26 21:38 -22.68299 -69.09606 19813 ft 470 kts 78°
2026-04-26 21:38 -22.67682 -69.06184 18783 ft 455 kts 81°
2026-04-26 21:39 -22.67148 -69.02856 17726 ft 442 kts 82°
2026-04-26 21:39 -22.66643 -68.99610 16635 ft 431 kts 81°
2026-04-26 21:39 -22.66147 -68.96457 15627 ft 420 kts 81°
2026-04-26 21:39 -22.65651 -68.93378 14672 ft 410 kts 80°
2026-04-26 21:40 -22.65158 -68.90370 13838 ft 400 kts 79°
2026-04-26 21:40 -22.64690 -68.87556 13697 ft 370 kts 79°
2026-04-26 21:40 -22.64247 -68.84904 13550 ft 346 kts 79°
2026-04-26 21:40 -22.63831 -68.82423 13398 ft 324 kts 78°
2026-04-26 21:41 -22.63441 -68.80090 13276 ft 305 kts 78°
2026-04-26 21:41 -22.63072 -68.77889 13160 ft 289 kts 78°
2026-04-26 21:41 -22.62718 -68.75781 13052 ft 280 kts 78°
2026-04-26 21:41 -22.62370 -68.73718 12946 ft 278 kts 78°
2026-04-26 21:42 -22.62138 -68.72342 12895 ft 284 kts 78°
2026-04-26 21:42 -22.61632 -68.70297 12753 ft 277 kts 61°
2026-04-26 21:42 -22.59975 -68.68471 12565 ft 247 kts 27°
2026-04-26 21:42 -22.58925 -68.67983 12331 ft 239 kts 13°
2026-04-26 21:43 -22.57324 -68.67709 12056 ft 227 kts
2026-04-26 21:43 -22.55788 -68.67585 11721 ft 225 kts
2026-04-26 21:43 -22.54178 -68.67495 11163 ft 231 kts 355°
2026-04-26 21:43 -22.52766 -68.68057 11025 ft 207 kts 313°
2026-04-26 21:44 -22.52050 -68.69317 10866 ft 192 kts 291°
2026-04-26 21:44 -22.51636 -68.70673 10633 ft 186 kts 281°
2026-04-26 21:44 -22.51376 -68.72017 10394 ft 180 kts 279°
2026-04-26 21:44 -22.51190 -68.73348 10169 ft 176 kts 275°
2026-04-26 21:45 -22.51090 -68.74612 9934 ft 163 kts 273°
2026-04-26 21:45 -22.51008 -68.75812 9717 ft 161 kts 273°
2026-04-26 21:45 -22.50926 -68.77018 9497 ft 159 kts 272°
2026-04-26 21:45 -22.50846 -68.78177 9310 ft 150 kts 272°
2026-04-26 21:46 -22.50770 -68.79264 9128 ft 139 kts 272°
2026-04-26 21:46 -22.50700 -68.80277 8960 ft 132 kts 273°
2026-04-26 21:46 -22.50614 -68.81282 8841 ft 137 kts 275°
2026-04-26 21:46 -22.50534 -68.82283 8864 ft 130 kts 273°
2026-04-26 21:47 -22.50448 -68.83244 8767 ft 130 kts 271°
2026-04-26 21:47 -22.50381 -68.84211 8585 ft 128 kts 270°
2026-04-26 21:47 -22.50342 -68.85185 8396 ft 130 kts 270°
2026-04-26 21:47 -22.50296 -68.86144 8128 ft 125 kts 273°
2026-04-26 21:48 -22.50225 -68.87092 7948 ft 127 kts 274°
2026-04-26 21:48 -22.50165 -68.88040 7799 ft 126 kts 274°
2026-04-26 21:48 -22.50101 -68.88967 7644 ft 121 kts 273°
2026-04-26 21:48 -22.50047 -68.89768 7574 ft 81 kts 274°
2026-04-26 21:49 -22.50021 -68.90146 7550 ft 21 kts 274°
2026-04-26 21:49 -22.50014 -68.90261 7542 ft 17 kts 274°
2026-04-26 21:49 -22.50005 -68.90393 7532 ft 16 kts 273°
2026-04-26 21:49 -22.49997 -68.90511 7524 ft 17 kts 275°
2026-04-26 21:50 -22.49987 -68.90652 7505 ft 19 kts 274°
2026-04-26 21:50 -22.49980 -68.90756 7507 ft 11 kts 275°
2026-04-26 21:50 -22.49921 -68.90792 7493 ft 12 kts
2026-04-26 21:50 -22.49839 -68.90784 7504 ft 12 kts
2026-04-26 21:51 -22.49761 -68.90778 7502 ft 11 kts
2026-04-26 21:51 -22.49691 -68.90772 7498 ft 9 kts
2026-04-26 21:51 -22.49649 -68.90762 7506 ft 6 kts 18°
2026-04-26 21:51 -22.49624 -68.90759 7507 ft 3 kts
2026-04-26 21:52 -22.49605 -68.90757 7501 ft 1 kts
2026-04-26 21:52 -22.49595 -68.90757 7504 ft 0 kts